Location: Passo di Treia
(43.2833°N, 13.3333°E)
Time: 01:26:32
(UTC+00:00)

USA 215 - Pass Details

Date: 09 December 2019
Orbit: 1099 x 1109 km, 123.0° (Epoch: 03 January)

Event Time Altitude Azimuth Distance (km) Brightness Sun altitude
Exits shadow 18:02:28 25° 16° (NNE) 2,056 4.5 -26.7°
Maximum altitude 18:04:16 29° 349° (N) 1,909 4.5 -27.0°
Drops below altitude 10° 18:09:41 10° 293° (WNW) 2,965 6.3 -28.0°
Sets 18:12:30 0° 283° (WNW) 3,924 7.2 -28.5°
